M I D A S
Marine Information and Data Acquisition System
Tripno 351 of the Zeeleeuw from 2002-10-29 09:26:45 to 2002-10-29 16:50:00
Back to CruiseResearch ActivitiesStationsMapUnderway DataData graphs

EquipmentUnitsComments
TimeDGPSUTC
LatitudeDGPSDM.mWGS84
LongitudeDGPSDM.mWGS84
SpeedMeteo Stationm/sRelative wind speed
DirectionMeteo StationdegRelative wind direction
TemperatureMeteo Stationdeg CelciusAir temperature
PressureMeteo StationPaAtmospheric pressure
HumidityMeteo Station%Relative humidity
Missing or incorrect values are displayed as -999
Metereological data collected by the RV Zeeleeuw from 2002-10-29 09:26:45 to 2002-10-29 16:50:00
Time Latitude Longitude Speed Direction Temperature Pressure Humidity
2002-10-29 09:27 51°13.689 2°55.773 1.5 138 9.7 102020 74
2002-10-29 09:28 51°13.741 2°55.778 1 45 9.7 102020 75
2002-10-29 09:29 51°13.829 2°55.631 0.5 345 9.7 102020 75
2002-10-29 09:30 51°13.948 2°55.54 1 296 9.8 102020 75
2002-10-29 09:31 51°14.071 2°55.459 0.9 71 9.9 102020 75
2002-10-29 09:32 51°14.168 2°55.389 1.2 360 9.9 102010 75
2002-10-29 09:33 51°14.241 2°55.302 1.2 21 9.9 102010 75
2002-10-29 09:34 51°14.296 2°55.202 1.6 329 10 102000 75
2002-10-29 09:35 51°14.367 2°55.064 1.5 257 10 102000 74
2002-10-29 09:36 51°14.532 2°54.891 2.2 244 10 102000 74
2002-10-29 09:37 51°14.736 2°54.806 3.4 222 10 102010 74
2002-10-29 09:38 51°14.952 2°54.721 2.1 172 10 102000 73
2002-10-29 09:39 51°15.163 2°54.643 2 163 9.9 102000 73
2002-10-29 09:40 51°15.376 2°54.56 2.6 202 9.9 102010 73
2002-10-29 09:41 51°15.593 2°54.473 2.3 216 10 102010 74
2002-10-29 09:42 51°15.811 2°54.385 2.2 184 10 102010 73
2002-10-29 09:43 51°16.034 2°54.296 2.3 217 10 102000 73
2002-10-29 09:44 51°16.206 2°54.332 5.1 152 10 101990 73
2002-10-29 09:45 51°16.3 2°54.401 6.1 124 10.1 101990 73
2002-10-29 09:46 51°16.381 2°54.349 2.3 329 10.1 101990 73
2002-10-29 09:47 51°16.322 2°54.24 11.6 235 10.2 101970 73
2002-10-29 09:48 51°16.262 2°54.285 8.2 218 10.2 101970 72
2002-10-29 09:49 51°16.263 2°54.276 5.3 187 10.2 101970 72
2002-10-29 09:50 51°16.266 2°54.262 5.2 179 10.3 101960 73
2002-10-29 09:51 51°16.272 2°54.248 6.4 152 10.1 101960 71
2002-10-29 09:52 51°16.276 2°54.237 5.9 150 10.3 101950 74
2002-10-29 09:53 51°16.287 2°54.238 7.7 143 10.4 101940 73
2002-10-29 09:54 51°16.299 2°54.253 8 158 10.3 101930 72
2002-10-29 09:55 51°16.307 2°54.275 7.4 182 10.3 101930 73
2002-10-29 09:56 51°16.309 2°54.298 7 193 10.2 101920 71
2002-10-29 09:57 51°16.306 2°54.32 9.6 212 10.1 101920 71
2002-10-29 09:58 51°16.299 2°54.335 8.8 211 10.1 101920 71
2002-10-29 09:59 51°16.287 2°54.345 9.7 233 10.2 101920 71
2002-10-29 10:00 51°16.272 2°54.343 9.1 261 10.3 101910 72
2002-10-29 10:01 51°16.263 2°54.325 8.6 275 10.4 101910 71
2002-10-29 10:02 51°16.26 2°54.3 8.8 297 10.4 101910 71
2002-10-29 10:03 51°16.26 2°54.272 6.2 319 10.6 101910 72
2002-10-29 10:04 51°16.261 2°54.243 2.7 315 10.5 101910 71
2002-10-29 10:05 51°16.263 2°54.214 4.1 319 10.5 101920 72
2002-10-29 10:06 51°16.265 2°54.186 3.4 336 10.5 101910 72
2002-10-29 10:07 51°16.267 2°54.157 1.9 320 10.5 101900 71
2002-10-29 10:08 51°16.265 2°54.117 2.2 333 10.5 101890 72
2002-10-29 10:09 51°16.32 2°53.903 0.8 295 10.5 101880 72
2002-10-29 10:10 51°16.457 2°53.637 2.3 343 10.5 101880 71
2002-10-29 10:11 51°16.593 2°53.369 2.7 1 10.4 101890 72
2002-10-29 10:12 51°16.731 2°53.105 0.7 327 10.5 101880 72
2002-10-29 10:13 51°16.871 2°52.851 1.7 353 10.5 101880 72
2002-10-29 10:14 51°17.018 2°52.602 1.9 23 10.5 101880 71
2002-10-29 10:15 51°17.179 2°52.379 1.1 286 10.5 101900 72
2002-10-29 10:16 51°17.349 2°52.173 0.7 353 10.5 101890 72
2002-10-29 10:17 51°17.518 2°51.964 2.2 349 10.6 101900 72
2002-10-29 10:18 51°17.699 2°51.793 1.9 75 10.5 101890 71
2002-10-29 10:19 51°17.889 2°51.644 1.9 69 10.6 101890 71
2002-10-29 10:20 51°18.087 2°51.524 1.5 100 10.5 101890 71
2002-10-29 10:21 51°18.258 2°51.417 3.7 47 10.6 101880 72
2002-10-29 10:22 51°18.372 2°51.321 4.2 68 10.7 101880 72
2002-10-29 10:23 51°18.476 2°51.253 4 80 10.7 101870 72
2002-10-29 10:24 51°18.506 2°51.216 9.9 19 10.8 101860 72
2002-10-29 10:25 51°18.509 2°51.198 7 6 10.7 101850 71
2002-10-29 10:26 51°18.513 2°51.174 7.5 335 10.7 101830 71
2002-10-29 10:27 51°18.516 2°51.146 3.1 317 10.7 101820 71
2002-10-29 10:28 51°18.519 2°51.117 2.5 317 10.7 101820 70
2002-10-29 10:29 51°18.521 2°51.088 4.2 323 10.7 101810 71
2002-10-29 10:30 51°18.523 2°51.059 5.9 312 10.7 101810 71
2002-10-29 10:31 51°18.523 2°51.029 4.9 315 10.8 101820 72
2002-10-29 10:32 51°18.525 2°50.998 2.8 326 10.8 101810 71
2002-10-29 10:33 51°18.523 2°50.964 8.5 297 10.8 101800 72
2002-10-29 10:34 51°18.522 2°50.792 2.1 343 10.8 101780 71
2002-10-29 10:35 51°18.66 2°50.72 9.2 128 10.7 101800 71
2002-10-29 10:36 51°18.722 2°50.938 10.9 178 10.8 101750 71
2002-10-29 10:37 51°18.775 2°51.191 11.6 181 10.8 101740 71
2002-10-29 10:38 51°18.844 2°51.499 11.4 183 10.7 101710 70
2002-10-29 10:39 51°18.917 2°51.828 13.1 178 10.7 101720 71
2002-10-29 10:40 51°18.989 2°52.158 11.1 188 10.7 101720 71
2002-10-29 10:41 51°19.061 2°52.487 10 184 10.7 101720 70
2002-10-29 10:42 51°19.134 2°52.815 12.2 184 10.7 101720 70
2002-10-29 10:43 51°19.205 2°53.144 11 183 10.7 101720 70
2002-10-29 10:44 51°19.277 2°53.472 12.6 187 10.8 101720 71
2002-10-29 10:45 51°19.349 2°53.8 11.3 185 10.8 101700 71
2002-10-29 10:46 51°19.421 2°54.127 12.3 189 10.7 101680 70
2002-10-29 10:47 51°19.493 2°54.455 11.4 187 10.7 101660 71
2002-10-29 10:48 51°19.564 2°54.783 10.8 188 10.7 101650 70
2002-10-29 10:49 51°19.634 2°55.109 13.5 182 10.7 101660 71
2002-10-29 10:50 51°19.708 2°55.433 11.4 188 10.7 101650 70
2002-10-29 10:51 51°19.78 2°55.757 10.9 185 10.7 101640 70
2002-10-29 10:52 51°19.853 2°56.082 10.3 183 10.7 101650 71
2002-10-29 10:53 51°19.926 2°56.408 12.2 191 10.8 101660 71
2002-10-29 10:54 51°20 2°56.732 11.5 186 10.8 101640 71
2002-10-29 10:55 51°20.076 2°57.056 12 188 10.7 101640 71
2002-10-29 10:56 51°20.149 2°57.38 13.3 191 10.7 101640 70
2002-10-29 10:57 51°20.224 2°57.702 13.2 187 10.7 101610 70
2002-10-29 10:58 51°20.301 2°58.026 12.3 192 10.7 101620 70
2002-10-29 10:59 51°20.376 2°58.349 12.4 189 10.8 101610 70
2002-10-29 11:00 51°20.451 2°58.67 13.5 180 10.8 101620 70
2002-10-29 11:01 51°20.525 2°58.992 10.7 189 10.8 101610 70
2002-10-29 11:02 51°20.6 2°59.311 10.5 188 10.8 101610 71
2002-10-29 11:03 51°20.675 2°59.63 12.3 192 10.8 101610 71
2002-10-29 11:04 51°20.749 2°59.949 12 190 10.8 101600 71
2002-10-29 11:05 51°20.824 3°0.266 11.6 186 10.7 101600 71
2002-10-29 11:06 51°20.9 3°0.58 13.2 190 10.7 101590 70
2002-10-29 11:07 51°20.964 3°0.9 12.5 189 10.7 101600 69
2002-10-29 11:08 51°21.026 3°1.22 10.6 186 10.7 101610 68
2002-10-29 11:09 51°21.09 3°1.536 10.8 184 10.8 101610 69
2002-10-29 11:10 51°21.152 3°1.851 12.8 182 10.8 101610 69
2002-10-29 11:11 51°21.214 3°2.167 11.8 191 10.8 101600 68
2002-10-29 11:12 51°21.276 3°2.483 11.2 186 10.8 101610 69
2002-10-29 11:13 51°21.339 3°2.8 11.8 193 10.9 101600 69
2002-10-29 11:14 51°21.395 3°3.121 11.5 189 10.9 101610 69
2002-10-29 11:15 51°21.447 3°3.442 12 194 10.9 101620 68
2002-10-29 11:16 51°21.497 3°3.763 12.8 190 10.9 101620 68
2002-10-29 11:17 51°21.55 3°4.083 9.9 194 10.9 101620 68
2002-10-29 11:18 51°21.598 3°4.405 13.1 201 10.9 101630 69
2002-10-29 11:19 51°21.638 3°4.728 11.7 193 10.9 101620 68
2002-10-29 11:20 51°21.676 3°5.049 13.7 196 10.9 101630 69
2002-10-29 11:21 51°21.716 3°5.369 11.9 199 10.9 101630 69
2002-10-29 11:22 51°21.753 3°5.69 12.8 201 10.8 101620 69
2002-10-29 11:23 51°21.792 3°6.01 13.6 196 10.8 101620 71
2002-10-29 11:24 51°21.829 3°6.329 12.4 196 10.7 101600 71
2002-10-29 11:25 51°21.866 3°6.649 11.4 189 10.7 101590 71
2002-10-29 11:26 51°21.901 3°6.958 9.7 187 10.6 101600 70
2002-10-29 11:27 51°21.933 3°7.247 10.1 190 10.7 101580 71
2002-10-29 11:28 51°21.966 3°7.537 12 197 10.6 101590 69
2002-10-29 11:29 51°21.999 3°7.825 12.4 192 10.7 101600 71
2002-10-29 11:30 51°22.031 3°8.114 10.3 184 10.7 101600 70
2002-10-29 11:31 51°22.064 3°8.403 9.4 187 10.7 101590 69
2002-10-29 11:32 51°22.096 3°8.692 10 194 10.7 101600 70
2002-10-29 11:33 51°22.127 3°8.984 10.7 190 10.7 101580 68
2002-10-29 11:34 51°22.16 3°9.276 10.8 197 10.7 101600 68
2002-10-29 11:35 51°22.19 3°9.57 9.7 187 10.8 101600 68
2002-10-29 11:36 51°22.222 3°9.861 10.7 188 10.7 101600 66
2002-10-29 11:37 51°22.254 3°10.154 12 200 10.8 101600 67
2002-10-29 11:38 51°22.286 3°10.449 9.9 202 10.8 101610 67
2002-10-29 11:39 51°22.32 3°10.744 8.3 190 10.8 101590 67
2002-10-29 11:40 51°22.352 3°11.036 11.4 190 10.9 101600 68
2002-10-29 11:41 51°22.367 3°11.329 11.8 189 10.8 101610 67
2002-10-29 11:42 51°22.366 3°11.625 12.9 196 10.8 101600 67
2002-10-29 11:43 51°22.367 3°11.924 12.2 196 10.8 101590 66
2002-10-29 11:44 51°22.385 3°12.222 9.8 187 10.8 101590 67
2002-10-29 11:45 51°22.437 3°12.512 8.2 189 10.8 101580 65
2002-10-29 11:46 51°22.503 3°12.796 9.9 180 10.9 101580 66
2002-10-29 11:47 51°22.547 3°12.999 8.1 180 10.9 101590 67
2002-10-29 11:48 51°22.583 3°13.112 9.1 170 10.9 101590 68
2002-10-29 11:49 51°22.602 3°13.19 9 171 10.9 101600 68
2002-10-29 11:50 51°22.608 3°13.228 8.9 167 10.9 101600 67
2002-10-29 11:51 51°22.612 3°13.23 9.7 169 10.9 101600 68
2002-10-29 11:52 51°22.617 3°13.225 6.6 179 10.9 101600 67
2002-10-29 11:53 51°22.621 3°13.215 6.8 165 10.8 101600 67
2002-10-29 11:54 51°22.626 3°13.201 6.7 172 10.9 101610 68
2002-10-29 11:55 51°22.632 3°13.183 8.5 158 10.8 101610 67
2002-10-29 11:56 51°22.639 3°13.164 8.3 156 10.9 101600 67
2002-10-29 11:57 51°22.646 3°13.144 7.7 160 10.8 101600 66
2002-10-29 11:58 51°22.653 3°13.131 9.2 149 10.9 101590 67
2002-10-29 11:59 51°22.745 3°13.144 3.6 52 10.9 101600 67
2002-10-29 12:00 51°22.813 3°12.898 6.6 302 10.9 101600 68
2002-10-29 12:01 51°22.858 3°12.587 5.5 301 10.9 101600 67
2002-10-29 12:02 51°22.918 3°12.279 5.3 301 10.9 101610 67
2002-10-29 12:03 51°23.007 3°12 0.5 340 10.8 101610 65
2002-10-29 12:04 51°23.12 3°11.738 0.7 313 10.9 101600 66
2002-10-29 12:05 51°23.246 3°11.502 2 356 10.9 101600 66
2002-10-29 12:06 51°23.379 3°11.276 1.3 309 10.9 101600 66
2002-10-29 12:07 51°23.512 3°11.052 1.8 308 10.9 101600 66
2002-10-29 12:08 51°23.642 3°10.823 2.1 287 11 101600 67
2002-10-29 12:09 51°23.771 3°10.59 1.9 310 11 101600 67
2002-10-29 12:10 51°23.9 3°10.356 2.2 351 11.1 101600 67
2002-10-29 12:11 51°24.033 3°10.127 1.5 2 11 101590 67
2002-10-29 12:12 51°24.172 3°9.901 2.8 11 11.1 101580 68
2002-10-29 12:13 51°24.311 3°9.675 2.1 351 11 101580 68
2002-10-29 12:14 51°24.449 3°9.449 1.1 345 10.9 101590 67
2002-10-29 12:15 51°24.579 3°9.227 2.8 346 10.9 101580 67
2002-10-29 12:16 51°24.692 3°8.986 2.5 11 10.9 101570 66
2002-10-29 12:17 51°24.807 3°8.75 0.7 344 10.9 101570 67
2002-10-29 12:18 51°24.918 3°8.522 2.2 335 10.9 101570 67
2002-10-29 12:19 51°25.032 3°8.288 2.7 10 11 101570 68
2002-10-29 12:20 51°25.142 3°8.063 2.4 342 11.1 101560 69
2002-10-29 12:21 51°25.26 3°7.843 1 351 11 101560 68
2002-10-29 12:22 51°25.388 3°7.638 2.3 3 11 101550 68
2002-10-29 12:23 51°25.515 3°7.433 1.7 359 11 101550 67
2002-10-29 12:24 51°25.642 3°7.225 2.4 17 11 101550 68
2002-10-29 12:25 51°25.769 3°7.019 2.1 5 11 101560 68
2002-10-29 12:26 51°25.895 3°6.813 2.2 356 11.1 101560 69
2002-10-29 12:27 51°26.021 3°6.607 2.2 4 11.1 101540 68
2002-10-29 12:28 51°26.153 3°6.412 2.2 9 11.1 101550 68
2002-10-29 12:29 51°26.286 3°6.222 2.5 6 11.1 101550 68
2002-10-29 12:30 51°26.421 3°6.033 2.2 15 11 101550 67
2002-10-29 12:31 51°26.552 3°5.848 2.7 358 11.1 101550 68
2002-10-29 12:32 51°26.69 3°5.657 0.8 345 11 101560 67
2002-10-29 12:33 51°26.824 3°5.468 1.7 353 11.1 101560 67
2002-10-29 12:34 51°26.943 3°5.293 2.9 23 11.1 101560 68
2002-10-29 12:35 51°27.018 3°5.177 3.7 39 11.2 101550 69
2002-10-29 12:36 51°27.081 3°5.101 4.8 51 11.3 101540 70
2002-10-29 12:37 51°27.139 3°5.031 4.6 39 11.6 101540 68
2002-10-29 12:38 51°27.192 3°4.962 4 44 11.6 101540 65
2002-10-29 12:39 51°27.244 3°4.894 5.1 49 11.8 101540 66
2002-10-29 12:40 51°27.295 3°4.829 5.6 49 12 101530 66
2002-10-29 12:41 51°27.346 3°4.761 4.7 44 12.1 101520 65
2002-10-29 12:42 51°27.396 3°4.695 5.9 36 12.1 101510 62
2002-10-29 12:43 51°27.447 3°4.625 4.9 39 11.8 101500 64
2002-10-29 12:44 51°27.497 3°4.557 4.3 50 11.8 101490 66
2002-10-29 12:45 51°27.548 3°4.489 6.1 51 12 101500 66
2002-10-29 12:46 51°27.597 3°4.421 4.8 50 12.1 101490 65
2002-10-29 12:47 51°27.697 3°4.289 2.7 41 12.2 101480 68
2002-10-29 12:48 51°27.849 3°4.143 2.9 68 12.1 101480 65
2002-10-29 12:49 51°28.016 3°3.993 3 72 11.9 101470 65
2002-10-29 12:50 51°28.177 3°3.843 2.9 58 11.7 101470 66
2002-10-29 12:51 51°28.264 3°3.712 7.2 15 11.6 101470 67
2002-10-29 12:52 51°28.281 3°3.599 6.6   11.5 101450 66
2002-10-29 12:53 51°28.281 3°3.571 4.3 341 11.4 101460 67
2002-10-29 12:54 51°28.282 3°3.553 6.7 347 11.3 101450 67
2002-10-29 12:55 51°28.281 3°3.531 4.7 341 11.3 101440 68
2002-10-29 12:56 51°28.281 3°3.505 0.5 323 11.3 101430 69
2002-10-29 12:57 51°28.279 3°3.477 2.7 344 11.2 101430 68
2002-10-29 12:58 51°28.277 3°3.449 1.8 324 11.2 101420 68
2002-10-29 12:59 51°28.273 3°3.422 1 337 11.3 101420 69
2002-10-29 13:00 51°28.264 3°3.384 8.8 304 11.3 101420 68
2002-10-29 13:01 51°28.19 3°3.13 11.5 290 11.3 101400 68
2002-10-29 13:02 51°28.102 3°2.774 11.6 289 11.4 101400 69
2002-10-29 13:03 51°28.028 3°2.407 10.2 290 11.3 101400 68
2002-10-29 13:04 51°27.961 3°2.022 10.9 287 11.3 101390 68
2002-10-29 13:05 51°27.894 3°1.642 10.6 298 11.3 101380 68
2002-10-29 13:06 51°27.825 3°1.265 11.4 300 11.4 101360 69
2002-10-29 13:07 51°27.757 3°0.886 10.6 302 11.4 101360 69
2002-10-29 13:08 51°27.69 3°0.508 11.3 292 11.4 101360 68
2002-10-29 13:09 51°27.621 3°0.133 12.5 290 11.5 101360 69
2002-10-29 13:10 51°27.553 2°59.759 10.9 292 11.5 101360 68
2002-10-29 13:11 51°27.488 2°59.388 11.1 294 11.5 101350 66
2002-10-29 13:12 51°27.429 2°59.016 11.3 295 11.5 101350 65
2002-10-29 13:13 51°27.371 2°58.642 11.9 295 11.6 101360 67
2002-10-29 13:14 51°27.315 2°58.264 10.8 297 11.6 101360 67
2002-10-29 13:15 51°27.256 2°57.888 10.2 290 11.6 101350 67
2002-10-29 13:16 51°27.197 2°57.512 11.8 295 11.6 101340 68
2002-10-29 13:17 51°27.139 2°57.135 11.8 295 11.6 101340 67
2002-10-29 13:18 51°27.082 2°56.757 11.2 296 11.6 101350 66
2002-10-29 13:19 51°27.029 2°56.377 11 290 11.6 101330 67
2002-10-29 13:20 51°26.985 2°55.995 12.2 296 11.6 101330 67
2002-10-29 13:21 51°26.942 2°55.613 11.7 298 11.6 101310 67
2002-10-29 13:22 51°26.898 2°55.23 10.9 294 11.6 101310 67
2002-10-29 13:23 51°26.851 2°54.845 11.2 295 11.6 101320 67
2002-10-29 13:24 51°26.804 2°54.46 13.1 292 11.7 101300 68
2002-10-29 13:25 51°26.759 2°54.072 12.4 295 11.6 101290 67
2002-10-29 13:26 51°26.714 2°53.687 12.2 292 11.7 101290 68
2002-10-29 13:27 51°26.67 2°53.303 12.6 290 11.7 101280 68
2002-10-29 13:28 51°26.626 2°52.923 12.9 293 11.7 101290 68
2002-10-29 13:29 51°26.581 2°52.539 12.4 293 11.7 101270 67
2002-10-29 13:30 51°26.537 2°52.158 11.8 302 11.7 101270 67
2002-10-29 13:31 51°26.493 2°51.777 11 302 11.7 101280 67
2002-10-29 13:32 51°26.449 2°51.397 12.7 310 11.8 101260 68
2002-10-29 13:33 51°26.407 2°51.017 11.8 297 11.8 101280 68
2002-10-29 13:34 51°26.362 2°50.635 13.5 298 11.8 101270 68
2002-10-29 13:35 51°26.317 2°50.254 16.1 299 11.8 101270 67
2002-10-29 13:36 51°26.275 2°49.874 14.4 299 11.8 101250 67
2002-10-29 13:37 51°26.224 2°49.495 12.4 299 11.7 101250 66
2002-10-29 13:38 51°26.164 2°49.119 12.5 299 11.8 101240 66
2002-10-29 13:39 51°26.111 2°48.824 14.5 299 11.8 101250 68
2002-10-29 13:40 51°26.058 2°48.669 13.1 295 11.8 101240 67
2002-10-29 13:41 51°26.02 2°48.569 11.7 298 11.8 101240 68
2002-10-29 13:42 51°26.017 2°48.541 4.8 294 11.8 101250 67
2002-10-29 13:43 51°26.023 2°48.531 1 329 11.8 101260 67
2002-10-29 13:44 51°26.025 2°48.513 4.8 347 11.9 101260 69
2002-10-29 13:45 51°26.028 2°48.493 7.6 350 11.9 101250 69
2002-10-29 13:46 51°26.031 2°48.469 2 351 11.8 101250 68
2002-10-29 13:47 51°26.034 2°48.442 2 322 11.8 101230 67
2002-10-29 13:48 51°26.037 2°48.416 3.7 304 11.8 101250 67
2002-10-29 13:49 51°26.038 2°48.388 3.7 316 11.7 101240 66
2002-10-29 13:50 51°26.039 2°48.361 6.5 299 11.8 101250 68
2002-10-29 13:51 51°26.012 2°48.187 12.5 295 11.8 101230 66
2002-10-29 13:52 51°25.938 2°47.871 16.5 275 11.8 101230 67
2002-10-29 13:53 51°25.742 2°47.678 19.1 252 11.8 101250 67
2002-10-29 13:54 51°25.521 2°47.545 16.9 259 11.8 101260 68
2002-10-29 13:55 51°25.321 2°47.348 17.3 261 11.8 101250 67
2002-10-29 13:56 51°25.115 2°47.163 16.7 260 11.8 101250 66
2002-10-29 13:57 51°24.91 2°46.977 18.2 261 11.9 101250 69
2002-10-29 13:58 51°24.703 2°46.792 16.8 265 11.9 101240 68
2002-10-29 13:59 51°24.497 2°46.603 18.9 261 11.9 101240 69
2002-10-29 14:00 51°24.29 2°46.411 16.7 257 11.9 101250 68
2002-10-29 14:01 51°24.083 2°46.219 20.1 258 11.9 101240 68
2002-10-29 14:02 51°23.877 2°46.029 18.3 258 11.8 101240 66
2002-10-29 14:03 51°23.667 2°45.843 16.7 254 11.9 101240 67
2002-10-29 14:04 51°23.458 2°45.661 18.3 261 11.9 101240 68
2002-10-29 14:05 51°23.244 2°45.482 18.3 257 11.8 101210 67
2002-10-29 14:06 51°23.031 2°45.303 18.7 260 11.8 101200 67
2002-10-29 14:07 51°22.818 2°45.129 16.6 257 11.9 101200 68
2002-10-29 14:08 51°22.602 2°44.962 18.6 252 11.9 101210 69
2002-10-29 14:09 51°22.387 2°44.794 17.2 257 11.9 101190 69
2002-10-29 14:10 51°22.157 2°44.617 19.1 259 11.9 101180 68
2002-10-29 14:11 51°21.948 2°44.412 17.2 257 11.9 101180 69
2002-10-29 14:12 51°21.749 2°44.214 19.4 257 11.9 101170 69
2002-10-29 14:13 51°21.551 2°44.018 19.6 262 11.9 101170 68
2002-10-29 14:14 51°21.349 2°43.818 19 262 11.9 101160 69
2002-10-29 14:15 51°21.148 2°43.619 17.3 259 11.8 101160 69
2002-10-29 14:16 51°20.973 2°43.368 17.2 273 11.8 101160 69
2002-10-29 14:17 51°20.845 2°43.054 15 281 11.8 101170 70
2002-10-29 14:18 51°20.765 2°42.702 15.9 288 11.8 101170 70
2002-10-29 14:19 51°20.724 2°42.335 14.1 292 11.8 101190 70
2002-10-29 14:20 51°20.698 2°41.965 15.2 291 11.7 101190 69
2002-10-29 14:21 51°20.669 2°41.595 13.2 292 11.7 101180 69
2002-10-29 14:22 51°20.639 2°41.224 13.3 291 11.8 101190 70
2002-10-29 14:23 51°20.608 2°40.848 12.6 291 11.8 101170 70
2002-10-29 14:24 51°20.576 2°40.49 13 297 11.8 101170 69
2002-10-29 14:25 51°20.544 2°40.118 12.3 286 11.8 101170 68
2002-10-29 14:26 51°20.513 2°39.747 14 288 11.8 101180 69
2002-10-29 14:27 51°20.476 2°39.346 14.2 284 11.8 101160 68
2002-10-29 14:28 51°20.442 2°38.958 14.3 287 11.8 101170 69
2002-10-29 14:29 51°20.41 2°38.607 13.4 283 11.8 101160 69
2002-10-29 14:30 51°20.374 2°38.239 13.8 287 11.8 101150 70
2002-10-29 14:31 51°20.343 2°37.872 15.5 287 11.8 101150 69
2002-10-29 14:32 51°20.319 2°37.488 13.3 286 11.9 101160 70
2002-10-29 14:33 51°20.3 2°37.126 13.1 289 11.9 101150 70
2002-10-29 14:34 51°20.28 2°36.757 12.9 283 11.9 101150 70
2002-10-29 14:35 51°20.26 2°36.381 15.8 284 11.9 101140 69
2002-10-29 14:36 51°20.239 2°36.016 16 295 11.9 101150 68
2002-10-29 14:37 51°20.218 2°35.643 15.6 285 12 101150 69
2002-10-29 14:38 51°20.197 2°35.282 14.3 284 11.9 101140 67
2002-10-29 14:39 51°20.18 2°34.912 16 285 12 101140 68
2002-10-29 14:40 51°20.163 2°34.547 15.2 288 12 101130 66
2002-10-29 14:41 51°20.145 2°34.184 16.8 290 12 101140 67
2002-10-29 14:42 51°20.125 2°33.807 16.6 289 12 101120 66
2002-10-29 14:43 51°20.106 2°33.445 15.7 283 12 101130 65
2002-10-29 14:44 51°20.087 2°33.079 16.6 289 12 101140 66
2002-10-29 14:45 51°20.067 2°32.705 16.3 291 12 101120 66
2002-10-29 14:46 51°20.051 2°32.345 14.6 286 12 101120 67
2002-10-29 14:47 51°20.04 2°31.968 16.6 286 12 101130 66
2002-10-29 14:48 51°20.03 2°31.6 15.5 284 12 101120 67
2002-10-29 14:49 51°20.02 2°31.238 14.8 286 12 101120 67
2002-10-29 14:50 51°20.009 2°30.876 14.9 281 11.9 101130 65
2002-10-29 14:52 51°20.013 2°30.503 15.1 289 11.9 101150 66
2002-10-29 14:53 51°20.034 2°30.221 13.4 294 11.9 101200 65
2002-10-29 14:54 51°20.048 2°30.067 10 302 11.9 101190 67
2002-10-29 14:55 51°20.055 2°29.994 7.3 306 11.9 101190 67
2002-10-29 14:56 51°20.062 2°29.95 7 307 11.9 101170 68
2002-10-29 14:57 51°20.068 2°29.924 7.6 302 12.1 101160 71
2002-10-29 14:58 51°20.08 2°29.911 7.5 295 12.1 101170 70
2002-10-29 14:59 51°20.092 2°29.903 6.4 317 11.9 101150 67
2002-10-29 15:00 51°20.105 2°29.899 5.2 325 11.9 101140 69
2002-10-29 15:01 51°20.118 2°29.895 7.5 304 11.8 101160 68
2002-10-29 15:02 51°20.132 2°29.892 6.8 312 11.8 101150 68
2002-10-29 15:03 51°20.146 2°29.889 10.9 297 11.9 101150 69
2002-10-29 15:04 51°20.133 2°29.786 14.6 270 11.9 101140 70
2002-10-29 15:05 51°20.012 2°29.733 18.6 213 11.9 101090 70
2002-10-29 15:06 51°19.843 2°29.936 15.6 213 11.9 101080 69
2002-10-29 15:07 51°19.663 2°30.162 18 210 11.9 101090 70
2002-10-29 15:08 51°19.483 2°30.392 17.9 206 11.8 101050 69
2002-10-29 15:09 51°19.309 2°30.628 17.3 209 11.8 101080 70
2002-10-29 15:10 51°19.137 2°30.864 18.1 203 11.8 101060 67
2002-10-29 15:11 51°18.972 2°31.116 14.5 198 11.7 101080 67
2002-10-29 15:12 51°18.808 2°31.367 18 203 11.8 101070 70
2002-10-29 15:13 51°18.643 2°31.616 16.2 201 11.8 101070 68
2002-10-29 15:14 51°18.476 2°31.864 16.8 202 11.8 101070 69
2002-10-29 15:15 51°18.308 2°32.112 17.6 204 11.8 101070 68
2002-10-29 15:16 51°18.143 2°32.363 16.4 201 11.7 101070 68
2002-10-29 15:17 51°17.977 2°32.614 16.2 205 11.7 101070 68
2002-10-29 15:18 51°17.812 2°32.869 14.8 204 11.7 101070 67
2002-10-29 15:19 51°17.646 2°33.124 16.7 200 11.8 101080 69
2002-10-29 15:20 51°17.467 2°33.397 15.3 205 11.7 101070 69
2002-10-29 15:21 51°17.301 2°33.654 15.7 200 11.7 101080 68
2002-10-29 15:22 51°17.142 2°33.899 14.8 210 11.8 101080 69
2002-10-29 15:23 51°16.97 2°34.167 15.2 206 11.7 101090 68
2002-10-29 15:24 51°16.811 2°34.419 15.5 205 11.7 101080 68
2002-10-29 15:25 51°16.643 2°34.679 15.5 203 11.8 101090 70
2002-10-29 15:26 51°16.475 2°34.941 15.2 212 11.8 101080 68
2002-10-29 15:27 51°16.31 2°35.201 15.1 210 11.7 101080 68
2002-10-29 15:28 51°16.14 2°35.461 15.7 198 11.7 101080 68
2002-10-29 15:29 51°15.986 2°35.713 15.7 202 11.7 101060 66
2002-10-29 15:30 51°15.824 2°35.973 15.9 202 11.8 101070 68
2002-10-29 15:31 51°15.664 2°36.232 16.1 205 11.8 101060 69
2002-10-29 15:32 51°15.505 2°36.492 16 205 11.8 101070 70
2002-10-29 15:33 51°15.347 2°36.774 16.4 203 11.8 101060 70
2002-10-29 15:34 51°15.199 2°37.051 16.1 204 11.7 101060 70
2002-10-29 15:35 51°15.05 2°37.33 14.6 202 11.7 101060 69
2002-10-29 15:36 51°14.898 2°37.618 15.7 200 11.6 101060 69
2002-10-29 15:37 51°14.741 2°37.909 16.4 204 11.7 101080 69
2002-10-29 15:38 51°14.586 2°38.177 15.5 207 11.6 101060 69
2002-10-29 15:39 51°14.418 2°38.435 17.7 211 11.6 101050 69
2002-10-29 15:40 51°14.251 2°38.652 18.1 215 11.6 101050 69
2002-10-29 15:41 51°14.057 2°38.874 15.8 206 11.6 101060 69
2002-10-29 15:42 51°13.888 2°39.116 15.5 211 11.6 101050 70
2002-10-29 15:43 51°13.706 2°39.33 15.7 216 11.6 101040 70
2002-10-29 15:44 51°13.514 2°39.532 17.8 213 11.6 101050 71
2002-10-29 15:45 51°13.325 2°39.735 15.8 217 11.6 101050 69
2002-10-29 15:46 51°13.129 2°39.946 15.8 218 11.6 101060 70
2002-10-29 15:47 51°12.946 2°40.142 16.4 215 11.6 101070 70
2002-10-29 15:48 51°12.757 2°40.347 15.3 217 11.6 101060 70
2002-10-29 15:49 51°12.568 2°40.549 16.6 219 11.5 101060 69
2002-10-29 15:50 51°12.381 2°40.755 17 212 11.5 101060 70
2002-10-29 15:51 51°12.194 2°40.963 15.8 213 11.5 101060 70
2002-10-29 15:52 51°12.001 2°41.177 15 215 11.5 101070 70
2002-10-29 15:53 51°11.817 2°41.383 17.1 216 11.5 101080 69
2002-10-29 15:54 51°11.632 2°41.594 15.3 212 11.5 101080 69
2002-10-29 15:55 51°11.455 2°41.798 12.5 209 11.5 101080 69
2002-10-29 15:56 51°11.338 2°41.963 12.2 211 11.4 101070 67
2002-10-29 15:57 51°11.265 2°42.052 10 206 11.5 101100 70
2002-10-29 15:58 51°11.232 2°42.095 8.8 227 11.4 101100 68
2002-10-29 15:59 51°11.241 2°42.127 7.4 224 11.4 101110 69
2002-10-29 16:00 51°11.252 2°42.158 8.8 212 11.4 101110 70
2002-10-29 16:01 51°11.267 2°42.189 8.7 201 11.4 101110 67
2002-10-29 16:02 51°11.283 2°42.219 7.1 182 11.4 101110 69
2002-10-29 16:03 51°11.299 2°42.245 7.4 160 11.4 101110 70
2002-10-29 16:04 51°11.314 2°42.272 6 153 11.4 101120 71
2002-10-29 16:05 51°11.328 2°42.302 7.3 135 11.4 101120 69
2002-10-29 16:06 51°11.342 2°42.332 6.4 125 11.4 101120 69
2002-10-29 16:07 51°11.356 2°42.362 6.5 119 11.4 101120 69
2002-10-29 16:08 51°11.37 2°42.392 6.4 127 11.4 101120 69
2002-10-29 16:09 51°11.384 2°42.425 7.8 122 11.4 101110 69
2002-10-29 16:10 51°11.399 2°42.511 7.6 156 11.3 101110 68
2002-10-29 16:11 51°11.448 2°42.841 7.7 173 11.3 101100 69
2002-10-29 16:12 51°11.502 2°43.216 7.7 179 11.3 101090 69
2002-10-29 16:13 51°11.551 2°43.609 9.4 167 11.3 101090 70
2002-10-29 16:14 51°11.599 2°43.998 8.6 178 11.3 101100 69
2002-10-29 16:15 51°11.648 2°44.381 8.6 176 11.3 101090 69
2002-10-29 16:16 51°11.697 2°44.766 8.4 180 11.3 101090 70
2002-10-29 16:17 51°11.749 2°45.163 7.2 193 11.3 101090 69
2002-10-29 16:18 51°11.803 2°45.545 7 178 11.2 101090 70
2002-10-29 16:19 51°11.869 2°45.938 7.4 181 11.2 101100 72
2002-10-29 16:20 51°11.934 2°46.317 6 179 11.1 101090 71
2002-10-29 16:21 51°12.007 2°46.706 8 171 11.1 101090 70
2002-10-29 16:22 51°12.079 2°47.082 7.1 164 11.2 101100 71
2002-10-29 16:23 51°12.16 2°47.473 5.7 187 11.1 101090 71
2002-10-29 16:24 51°12.25 2°47.845 7.3 161 11.1 101090 72
2002-10-29 16:25 51°12.37 2°48.195 6.1 165 11.1 101100 72
2002-10-29 16:26 51°12.496 2°48.544 5.3 166 11.1 101090 72
2002-10-29 16:27 51°12.62 2°48.893 7.2 167 11.1 101100 72
2002-10-29 16:28 51°12.74 2°49.246 5.4 183 11.1 101100 73
2002-10-29 16:29 51°12.856 2°49.596 5.8 179 11 101090 72
2002-10-29 16:30 51°12.977 2°49.956 6.3 172 11 101090 72
2002-10-29 16:31 51°13.096 2°50.304 6.1 179 10.9 101090 73
2002-10-29 16:32 51°13.216 2°50.665 5.6 188 10.9 101090 72
2002-10-29 16:33 51°13.333 2°51.021 5.4 180 10.9 101090 73
2002-10-29 16:34 51°13.451 2°51.377 5.6 176 10.8 101100 73
2002-10-29 16:35 51°13.569 2°51.734 5.9 179 10.8 101090 73
2002-10-29 16:36 51°13.686 2°52.084 5.6 173 10.8 101090 73
2002-10-29 16:37 51°13.807 2°52.446 6.4 167 10.8 101090 73
2002-10-29 16:38 51°13.927 2°52.799 6.9 167 10.8 101090 73
2002-10-29 16:39 51°14.048 2°53.151 5.8 176 10.7 101090 72
2002-10-29 16:40 51°14.164 2°53.507 5.7 166 10.7 101080 72
2002-10-29 16:41 51°14.244 2°53.879 6.1 177 10.7 101090 73
2002-10-29 16:42 51°14.296 2°54.267 6.2 190 10.7 101090 72
2002-10-29 16:43 51°14.339 2°54.655 7.3 195 10.7 101100 71
2002-10-29 16:44 51°14.352 2°55.043 7.5 217 10.7 101100 71
2002-10-29 16:45 51°14.244 2°55.3 5.5 202 10.7 101100 71
2002-10-29 16:46 51°14.136 2°55.42 6 202 10.7 101100 71
2002-10-29 16:47 51°14.051 2°55.484 3.5 217 10.7 101100 70
2002-10-29 16:48 51°13.973 2°55.536 3.9 220 10.7 101090 70
2002-10-29 16:49 51°13.9 2°55.585 5.6 231 10.7 101100 71